TIME,PRES,T(CTD),SAL,OXYGEN,RAWTEMP,T(OPTODE),TCPHASE,CHECK
1342368240,310.2799987792969000,17.8442993164062500,36.5257987976074200,223.1242980957031200,263.9732971191406000,17.8506393432617200,31.2511196136474600,13665
1342368345,303.9800109863281000,17.9132003784179700,36.5392990112304700,223.4306945800781200,261.6007080078125000,17.9234294891357420,31.2026405334472660,10396
1342368445,298.0700073242187500,17.9412994384765620,36.5448989868164060,223.9212036132812500,260.7379150390625000,17.9499092102050780,31.1657295227050780,9132
1342368545,292.1900024414062500,17.9668998718261720,36.5449981689453100,223.2946014404297000,259.9270935058594000,17.9747791290283200,31.1866207122802730,18251
1342368645,286.4299926757812500,18.0177001953125000,36.5537986755371100,222.8598937988281200,258.3305969238281000,18.0237693786621100,31.1869697570800780,14238
1342368755,280.1600036621094000,18.0342998504638670,36.5485992431640600,221.9777984619140600,257.6914062500000000,18.0433807373046880,31.2236404418945300,38905
1342368857,274.3299865722656000,18.0431995391845700,36.5393981933593750,219.4456024169922000,257.3431091308594000,18.0540599822998050,31.3504600524902340,40365
1342368969,268.1099853515625000,18.0811996459960940,36.5434989929199200,216.8126068115234400,256.2189941406250000,18.0885505676269530,31.4737091064453120,12451
1342369071,262.4500122070312500,18.1424007415771500,36.5518989562988300,216.4772949218750000,254.2891998291015600,18.1477508544921880,31.4645500183105470,20912
1342369183,256.1900024414062500,18.1798000335693360,36.5574989318847660,217.5415039062500000,252.8842010498047000,18.1908493041992200,31.3891601562500000,4718
1342369283,250.5399932861328000,18.2229003906250000,36.5575981140136700,219.4707946777343800,251.6307983398437500,18.2292995452880860,31.2704105377197270,62775
1342369394,244.1100006103515600,18.2378997802734380,36.5507011413574200,220.0104980468750000,251.0655975341797000,18.2466392517089840,31.2344608306884770,44054
1342369497,238.1000061035156200,18.3141002655029300,36.5662994384765600,218.8542022705078000,248.7957000732422000,18.3162593841552730,31.2638492584228500,41376
1342369599,231.9700012207031200,18.3327999114990230,36.5620002746582000,216.8314971923828000,248.0419006347656200,18.3393802642822270,31.3596801757812500,7753
1342369692,226.4600067138672000,18.4015007019042970,36.5718994140625000,216.0088958740234400,246.0453033447265600,18.4006195068359380,31.3760509490966800,9008
1342369802,220.1000061035156200,18.4092006683349600,36.5628013610839840,218.2583007812500000,245.5101013183593800,18.4170398712158200,31.2498493194580080,9943
1342369904,214.1699981689453000,18.4291000366210940,36.5528984069824200,222.7442932128906200,244.9019012451172000,18.4356899261474600,31.0088806152343750,51288
1342370006,208.2400054931640600,18.4615993499755860,36.5596008300781250,223.6351013183593800,243.7207031250000000,18.4719200134277340,30.9470691680908200,5309
1342370109,202.1499938964843800,18.4361991882324220,36.5322990417480500,227.1147003173828000,244.4759979248047000,18.4487590789794920,30.7817401885986330,40214
1342370211,196.1699981689453000,18.4976997375488280,36.5362014770507800,230.8471984863281200,242.7138061523437500,18.5027999877929700,30.5727500915527340,30562
1342370311,190.4299926757812500,18.5424995422363280,36.5433006286621100,229.3981018066406200,241.2167968750000000,18.5487098693847660,30.6237392425537100,58438
1342370423,184.1699981689453000,18.6075000762939450,36.5471992492675800,229.0370025634765600,239.1950988769531200,18.6107196807861330,30.6144294738769530,33249
1342370534,178.4499969482422000,18.6681995391845700,36.5475997924804700,226.7796020507812500,236.8625946044922000,18.6822490692138670,30.6951103210449220,8514
1342370655,172.8000030517578000,18.6760005950927730,36.5242996215820300,232.7565002441406200,236.8495941162109400,18.6826496124267580,30.4006309509277340,26653
1342370795,166.8800048828125000,18.7478008270263670,36.5295982360839840,237.1750030517578000,234.9131927490234400,18.7420406341552730,30.1626491546630860,59504
1342370953,160.7100067138672000,18.8796997070312500,36.5508995056152340,235.1089019775390600,230.5121002197265600,18.8770103454589840,30.2020702362060550,23645
1342371081,153.9299926757812500,18.9139995574951170,36.5413017272949200,235.7082061767578000,229.1293945312500000,18.9194107055664060,30.1550807952880860,52159
1342371174,148.4400024414062500,18.9811992645263670,36.5494995117187500,232.9004974365234400,226.8450927734375000,18.9894695281982420,30.2593097686767580,2885
1342371276,142.5500030517578000,19.0268993377685550,36.5469017028808600,234.8556060791015600,225.4503936767578000,19.0322399139404300,30.1465492248535160,44934
1342371388,136.2400054931640600,19.0786991119384770,36.5461006164550800,237.1004028320312500,223.7633972167968800,19.0839691162109380,30.0173397064209000,20555
1342371490,130.5599975585937500,19.0972995758056640,36.5429000854492200,239.1822052001953000,223.1529998779297000,19.1026897430419920,29.9112091064453120,36368
1342371600,124.5800018310546900,19.1051006317138670,36.5317001342773440,237.5068969726562500,222.8300018310547000,19.1126003265380860,29.9857692718505860,12383
1342371711,118.5800018310546900,19.1205005645751950,36.5279998779296900,236.7799987792968800,222.2736968994140600,19.1296596527099600,30.0128307342529300,49285
1342371823,112.6100006103515600,19.1373996734619140,36.5247001647949200,234.7509002685547000,221.7899932861328000,19.1444892883300780,30.1028709411621100,26182
1342371944,106.2900009155273400,19.2194995880126950,36.5359001159668000,234.1446075439453000,218.9131927490234400,19.2327194213867200,30.0935497283935550,41916
1342372065,100.4599990844726600,19.3230991363525400,36.5537986755371100,233.2294006347656200,215.7521972656250000,19.3296604156494140,30.0955905914306640,4355
1342372186,94.8399963378906200,19.5193004608154300,36.5890007019043000,235.8153991699218800,209.5572052001953000,19.5196609497070300,29.8899192810058600,4751
1342372325,88.4899978637695300,19.6366004943847660,36.6086997985839840,241.4335021972656200,205.5979003906250000,19.6410999298095700,29.5753002166748050,11835
1342372456,82.6399993896484400,19.7145996093750000,36.5999984741210940,246.1078033447265600,202.9214019775390600,19.7231998443603500,29.3274497985839840,23575
1342372586,76.7099990844726600,19.7994995117187500,36.6008987426757800,250.8354034423828000,200.3273925781250000,19.8027706146240230,29.0836601257324220,8366
1342372707,70.7500000000000000,19.8710002899169920,36.5940017700195300,251.3103942871093800,197.8339996337890600,19.8792591094970700,29.0306491851806640,33254
1342372819,65.9499969482421900,19.9603996276855470,36.5922012329101560,250.2966003417968800,195.1325988769531200,19.9621391296386720,29.0401401519775400,29393
1342373032,60.0299987792968750,20.2863006591796880,36.6082992553710940,260.1416931152344000,184.5885925292968800,20.2856903076171880,28.4823894500732420,61672
1342373169,53.5299987792968750,20.7087993621826170,36.6138000488281250,259.0056152343750000,170.8043060302734400,20.7088603973388670,28.3545894622802730,49710
1342373281,47.3800010681152340,21.1504001617431640,36.6054992675781250,256.7630920410156000,156.4822998046875000,21.1488399505615230,28.2678394317626950,19671
1342373430,42.1399993896484400,21.7523994445800780,36.5727005004882800,254.2669982910156200,136.4508972167968800,21.7648601531982420,28.1216506958007800,26378
1342373605,36.0499992370605500,22.4326000213623050,36.5121994018554700,257.8609008789062500,114.5201034545898400,22.4403991699218750,27.6973495483398440,13947
1342373797,29.0799999237060550,23.2723999023437500,36.4734992980957000,252.2301025390625000,86.7943572998046900,23.2965106964111330,27.5912399291992200,13778
1342373981,23.1599998474121100,24.6173000335693360,36.3902015686035160,245.4828948974609400,44.4158706665039060,24.6107196807861330,27.3605403900146500,33714
1342374118,16.3199996948242200,25.1455001831054700,36.3871002197265600,241.8338012695312500,26.3116397857666000,25.1746501922607420,27.2985897064209000,24823
1342374472,11.2200002670288090,26.6578998565673830,36.4141998291015600,229.6477966308593800,-22.2099494934082030,26.6949996948242200,27.2541103363037100,42669
1342374592,5.3299999237060550,26.7098999023437500,36.4123001098632800,229.3504028320312500,-23.5217094421386720,26.7363090515136720,27.2519493103027340,53647
1342374699,0.8899999856948853,0.0000000000000000,0.0000000000000000,226.3050994873047000,-51.8419113159179700,27.6308498382568360,27.0480995178222660,65368
